{"data":{"norad_id":67669,"intl_designator":"2026-022X","name":"STARLINK-36639","alt_names":[],"object_type":"PAYLOAD","status":"ACTIVE","operator":null,"country":"US","launch_date":"2026-02-02","launch_site_code":"AFWTR","launch_vehicle":null,"mission":null,"orbit_class":"UNKNOWN","rcs_meters":null,"size_class":null,"mass_kg":null,"dimensions":null,"purposes":["comms"],"wikipedia_slug":null,"has_3d_model":false,"image_url":null,"decayed_at":null,"tle_current":{"epoch":"2026-09-19T19:42:59.736672Z","epoch_age_seconds":127776,"freshness":"FRESH","line1":"1 67669U 26022X   26262.82152473  .00018642  00000+0  57813-3 0  9993","line2":"2 67669  97.2853 294.4040 0000761 109.8677 250.2648 15.33456938 35322","mean_motion":15.33456938,"eccentricity":7.61e-5,"inclination_deg":97.2853,"raan_deg":294.404,"arg_perigee_deg":109.8677,"mean_anomaly_deg":250.2648,"bstar":0.00057813,"rev_number":3532,"period_min":93.905473594721,"perigee_km":464.98685426137,"apogee_km":466.02845697795,"semimajor_km":6843.6446556197,"source":"CELESTRAK","updated_at":"2026-09-20T09:00:43.624348Z"}}}